Wind_Speed
42 43 43 44 46 49 52 54 54 53 52 52 52 52 53 53 53 52 51 50 50 50 51 51 51 51 50 49 47 45 43 42 42 42 43 43 44 45 46 48 49 50 52 53 54 54 55 55 56 57 57 57 58 57 57 57 57 57 57 57 56 56 56 55 55 54 54 54 54 54 54 54 54 54 55 55 56 56 56 56 56 56 56 56 56 56
43 43 43 44 45 47 48 50 50 50 50 50 51 51 51 51 51 51 51 51 51 51 51 51 51 50 49 47 46 44 43 42 42 43 43 44 45 46 47 49 50 52 53 54 55 56 56 57 57 58 58 57 57 57 56 56 56 56 56 55 55 55 54 54 54 53 53 53 53 53 53 53 53 53 54 54 54 55 55 55 55 56 56 56 56 56
44 44 45 45 46 46 47 48 48 49 49 49 49 49 49 49 49 49 49 49 50 50 50 50 49 48 47 46 45 44 43 43 43 44 45 46 47 48 49 50 52 53 54 55 56 56 57 57 57 57 57 56 56 56 55 55 55 55 55 54 54 54 53 53 53 53 52 52 52 52 52 52 53 53 53 54 54 54 55 55 55 55 56 56 56 57
45 45 46 46 46 45 46 46 46 46 46 46 46 46 46 46 46 47 47 47 47 48 48 48 47 46 46 45 44 44 44 44 45 46 47 48 49 50 50 51 52 53 54 54 55 56 56 56 56 56 56 55 55 55 55 54 54 54 54 54 53 53 53 53 53 53 53 53 53 53 53 53 53 54 54 54 55 55 55 56 56 56 57 57 57 58
44 45 45 44 44 44 44 44 43 43 43 43 43 43 44 44 44 45 45 45 45 46 46 46 45 45 44 44 44 44 44 45 46 47 48 49 50 51 51 52 52 53 53 54 54 55 55 55 55 55 55 55 55 55 54 54 54 54 54 53 53 53 53 53 53 53 53 54 54 54 54 54 55 55 55 56 56 56 57 57 57 58 58 58 59 59
43 44 43 43 42 42 42 41 41 41 41 41 41 41 42 42 43 43 43 43 44 44 44 44 44 43 43 43 43 44 45 46 47 48 49 49 50 51 51 52 52 53 53 54 54 54 55 55 55 55 55 55 55 55 55 54 54 54 54 54 54 54 54 54 54 54 54 54 55 55 55 56 56 56 57 57 57 58 58 58 59 59 59 60 60 61
42 42 42 42 41 41 40 40 40 40 40 40 40 41 41 41 41 42 42 42 43 43 43 43 43 43 43 43 43 44 45 45 46 47 48 49 50 50 51 51 52 53 53 54 54 55 55 55 55 55 55 55 55 55 55 55 55 54 54 54 54 54 55 55 55 55 55 56 56 56 57 57 57 58 58 58 58 59 59 59 59 60 60 61 61 62
41 42 42 42 42 41 41 41 41 41 41 41 41 41 41 41 41 42 42 42 42 42 42 43 43 43 43 43 44 44 45 45 46 47 47 48 49 50 50 51 52 52 53 54 54 55 55 55 55 55 55 56 56 56 55 55 55 55 55 55 56 56 56 56 56 57 57 57 58 58 58 58 59 59 59 59 59 59 60 60 60 60 61 61 62 62
41 42 42 43 43 42 42 42 43 43 43 43 43 43 43 43 43 43 43 43 43 43 43 43 44 44 44 44 45 45 46 46 46 47 48 48 49 50 50 51 52 52 53 53 54 55 55 55 55 56 56 56 56 56 56 56 56 57 57 57 57 57 58 58 58 59 59 59 59 59 59 59 60 60 60 60 60 60 60 60 61 61 61 62 62 63
42 43 43 43 43 43 43 43 43 44 44 44 44 44 44 44 44 44 44 44 45 45 45 45 45 46 46 46 46 47 47 47 48 48 49 49 50 50 51 51 52 52 53 54 54 55 55 55 56 56 56 57 57 57 57 58 58 58 58 59 59 59 59 60 60 60 60 60 60 60 60 60 60 60 60 60 60 60 60 61 61 61 62 62 63 63
43 44 44 44 43 43 43 43 44 44 44 45 45 45 45 46 46 46 46 46 47 47 46 47 47 47 47 47 48 48 48 49 49 49 50 50 51 51 52 52 53 53 54 54 55 56 56 56 57 57 58 58 58 58 59 59 59 59 59 60 60 60 60 60 61 61 61 61 60 60 60 60 60 60 60 60 60 60 61 61 61 62 62 63 63 64
45 45 45 45 45 45 45 45 45 45 45 45 45 46 46 46 46 46 47 47 47 47 48 48 48 48 49 49 49 50 50 50 51 52 52 53 53 53 54 54 55 55 56 57 57 58 58 58 59 59 59 59 59 60 59 59 60 60 60 60 60 60 60 60 60 60 60 60 60 60 60 60 60 60 60 60 60 61 61 62 62 63 63 64 64 65
45 46 46 46 46 46 46 47 47 47 47 47 48 48 48 48 48 48 48 48 48 49 49 49 50 50 51 51 52 52 52 53 54 54 55 55 56 56 57 57 57 58 58 59 59 60 60 60 60 60 60 60 60 60 60 60 60 60 60 60 60 60 60 60 60 60 60 60 60 60 60 60 60 60 61 61 61 62 62 62 63 63 64 64 65 65
43 44 44 45 46 46 47 47 47 48 48 49 50 51 51 51 50 50 50 51 51 51 51 52 52 53 53 54 54 54 55 55 56 56 56 57 58 58 58 58 59 59 60 60 60 60 60 60 60 60 60 60 60 60 60 60 60 60 60 60 60 60 60 60 60 60 60 60 60 60 60 60 61 61 61 62 62 63 63 63 64 64 65 65 66 66
41 41 41 42 43 44 44 44 45 46 47 48 49 49 50 51 51 51 52 53 53 54 53 54 54 55 55 55 56 56 56 56 56 57 57 58 58 59 58 58 59 60 60 60 60 61 61 60 60 60 60 60 60 60 60 60 60 60 60 60 60 60 60 60 60 60 60 60 60 60 61 61 61 62 62 62 63 63 64 64 65 65 66 66 66 67
41 40 40 40 41 41 41 42 42 42 44 44 45 46 46 48 49 50 51 52 53 53 53 54 55 55 55 56 56 56 55 56 56 56 57 57 58 58 58 58 58 59 59 59 59 60 60 59 59 59 59 59 59 59 59 59 59 59 59 60 60 60 60 60 60 60 60 60 60 61 61 61 62 62 63 63 64 64 65 65 66 66 67 67 68 68
42 41 41 40 40 40 41 41 41 41 42 42 42 43 43 44 45 46 47 48 49 50 50 51 52 53 54 54 54 54 54 54 54 55 55 56 56 57 57 56 56 57 58 58 58 58 59 58 58 58 58 58 58 58 58 59 59 59 59 59 59 59 60 60 60 60 60 61 61 61 62 62 63 63 64 64 65 65 66 66 67 68 68 69 69 70
45 44 43 42 41 41 41 41 41 41 41 41 41 42 42 42 43 43 44 45 46 46 47 48 49 50 51 51 52 52 52 51 52 53 53 54 55 55 55 54 55 55 56 56 56 57 57 57 57 57 57 57 57 58 58 58 59 59 59 60 60 60 61 61 61 62 62 62 63 63 64 64 65 65 66 66 67 68 68 69 69 70 71 71 72 72
46 46 45 45 44 44 43 42 42 42 42 42 42 42 42 42 42 42 43 44 44 45 45 46 47 47 48 49 50 50 49 49 50 51 51 52 53 53 53 53 53 54 55 55 55 56 56 56 56 56 57 57 57 58 58 59 59 60 60 61 62 62 63 64 64 64 65 65 65 66 66 67 67 68 69 69 70 70 71 72 72 73 73 74 75 75
46 46 47 47 46 46 45 45 45 44 43 43 42 42 42 43 43 43 43 44 44 45 45 45 45 46 47 48 49 49 48 48 48 49 51 51 52 53 52 52 52 53 54 54 55 55 55 55 56 56 57 57 58 58 59 59 60 61 61 62 63 64 65 66 66 67 67 68 68 68 69 69 70 70 71 72 72 73 73 74 74 75 76 76 77 77
46 47 47 47 47 47 47 47 47 46 46 45 44 44 44 44 44 44 45 45 45 45 45 45 46 47 48 48 48 48 48 48 48 49 50 51 52 52 52 52 52 53 54 54 55 55 55 56 56 57 57 58 58 59 60 60 61 61 62 63 64 65 66 67 68 68 69 69 69 70 70 71 71 72 73 73 74 74 75 75 76 77 77 78 78 79
46 47 47 47 47 47 48 48 48 48 48 47 47 47 47 47 46 46 46 46 46 46 46 47 47 48 48 48 48 49 49 48 49 50 51 51 52 53 53 53 53 53 54 55 56 56 56 56 57 58 58 59 59 60 61 61 62 62 63 64 65 66 66 67 68 69 69 70 71 71 72 72 73 73 74 74 75 75 76 76 77 77 78 78 79 79
47 47 47 47 47 48 49 49 49 49 49 49 49 49 49 49 48 48 48 48 48 48 48 48 48 48 48 49 49 50 50 50 50 50 50 51 52 53 54 53 53 53 55 56 56 56 56 57 57 58 59 59 60 61 61 62 62 63 64 64 65 66 67 68 69 69 70 71 71 72 72 73 74 74 75 75 76 77 77 78 78 78 79 79 80 80
48 48 48 48 48 48 49 49 49 49 49 50 50 51 51 50 50 50 50 50 50 49 50 50 49 50 50 51 51 51 51 51 51 51 51 51 52 54 54 53 53 54 55 56 56 56 56 57 58 59 60 60 61 61 62 63 63 64 65 65 66 67 68 68 69 70 71 72 72 73 74 74 75 75 76 76 77 77 78 79 79 79 80 80 81 81
48 48 48 48 48 49 49 49 49 49 50 50 50 51 51 51 51 51 51 51 51 51 51 51 51 51 52 52 52 53 53 53 52 52 52 52 53 54 54 54 54 54 55 56 56 56 56 57 59 60 60 60 61 62 63 63 64 65 66 66 67 68 68 69 70 71 72 73 73 74 75 75 76 76 77 77 78 78 79 79 80 80 81 81 81 81
49 49 49 49 49 49 49 49 50 50 50 50 51 51 51 51 52 52 52 52 52 52 52 52 52 52 53 53 53 53 54 54 54 53 53 54 54 55 55 55 55 55 56 57 57 56 57 58 59 60 60 61 62 62 63 64 65 66 66 67 68 68 69 70 71 71 72 73 73 74 75 75 76 77 77 78 78 79 79 80 80 81 81 81 82 82
49 49 49 49 49 49 50 50 50 50 50 51 51 51 51 51 51 52 52 53 53 52 52 52 52 53 54 53 53 54 55 55 55 55 55 55 55 56 57 57 56 56 57 57 58 57 57 58 59 60 61 61 62 63 64 65 65 66 67 67 68 69 69 70 71 71 72 72 73 73 74 75 76 76 77 78 78 79 80 80 81 81 82 82 83 83
49 49 50 50 50 50 50 50 50 50 51 51 51 51 51 51 51 52 53 53 53 52 52 52 53 54 54 54 54 55 55 56 56 56 56 56 56 57 58 58 58 57 57 58 59 59 58 59 60 61 61 62 62 63 64 65 66 66 67 67 68 68 69 69 70 71 71 72 72 73 74 74 75 76 77 78 78 79 80 81 82 82 83 84 84 85
50 50 50 50 50 50 50 51 51 51 51 51 51 51 51 51 51 52 53 53 52 52 52 53 54 54 54 54 55 55 56 56 57 57 56 56 56 58 59 59 58 58 58 59 59 59 59 60 61 61 62 62 63 63 64 65 65 66 66 67 67 68 68 69 70 70 71 71 72 73 74 75 75 76 77 78 79 80 81 82 83 84 85 85 86 86
50 50 50 51 51 51 51 51 51 51 51 51 51 51 52 52 52 52 53 53 52 52 53 54 54 54 54 54 55 55 56 58 58 58 56 55 56 58 59 58 58 58 59 59 59 59 60 61 61 61 61 62 63 63 64 65 65 65 66 66 67 68 69 69 70 71 72 72 73 74 75 76 77 78 79 79 80 81 82 84 84 85 86 86 87 88
51 51 51 51 51 51 51 51 52 52 52 52 52 52 52 52 52 53 53 53 52 53 53 54 54 54 54 54 55 56 57 59 59 57 56 55 57 59 59 58 58 59 59 59 58 58 60 61 61 61 61 61 62 64 64 64 65 65 66 67 68 69 70 71 71 72 73 74 75 76 76 77 78 79 80 81 82 83 83 84 85 86 86 87 87 88
51 51 51 51 51 51 51 52 52 52 52 52 52 52 52 52 53 53 53 53 53 53 54 54 55 55 55 55 55 56 58 59 58 57 56 56 57 59 59 58 58 59 60 59 59 59 59 60 61 61 60 61 62 64 65 65 65 66 67 68 69 70 71 72 72 73 74 75 76 77 78 78 79 80 81 81 82 83 84 84 85 86 86 87 87 87
52 52 52 52 52 52 52 52 52 52 53 53 53 53 53 53 53 53 54 54 54 54 54 55 55 55 56 56 56 57 58 58 58 57 56 56 57 59 59 58 58 59 60 60 60 60 60 61 61 61 61 61 62 64 65 66 67 67 68 69 70 71 73 73 73 74 75 76 77 77 78 79 79 80 81 81 82 83 83 84 85 86 86 86 87 88
52 53 53 52 52 52 52 52 52 52 53 53 53 53 54 54 54 54 55 55 55 55 55 55 56 56 56 56 56 57 58 58 58 58 57 56 57 58 59 58 58 59 60 60 61 61 61 62 62 62 62 63 64 65 66 67 68 69 69 70 71 72 73 74 74 75 75 76 77 77 78 79 79 80 80 81 82 83 83 84 85 86 87 87 88 88
52 52 52 52 52 52 52 52 52 52 53 53 54 54 54 55 55 55 55 56 56 56 56 56 56 56 56 56 56 57 58 59 58 58 57 57 57 59 59 59 59 60 60 61 61 61 62 62 63 63 64 64 65 66 67 68 68 69 70 71 72 72 73 74 74 74 75 76 77 77 78 78 79 80 80 81 82 83 84 85 86 87 88 89 89 90
51 51 51 51 51 52 52 52 52 53 53 54 54 54 55 55 55 56 56 56 56 56 56 56 56 56 56 56 56 57 58 58 58 58 57 58 58 59 59 60 60 60 60 61 62 62 62 63 64 64 65 65 66 67 68 68 68 69 70 71 72 72 73 73 74 74 75 76 76 77 78 78 79 80 81 82 82 83 84 85 86 87 89 90 91 91
49 50 50 50 50 51 51 52 52 53 53 54 54 54 55 55 55 56 56 56 56 56 56 56 56 56 57 57 57 57 58 58 58 58 58 59 59 59 59 60 61 61 61 61 62 63 63 63 64 65 65 65 66 66 67 68 68 68 69 70 71 71 72 73 74 74 75 75 76 77 78 79 79 80 81 82 83 84 85 86 87 88 89 90 91 92
47 48 48 49 49 49 50 51 51 52 52 53 53 53 54 54 54 55 55 55 55 56 56 56 56 56 56 57 57 58 58 58 58 59 59 59 59 59 59 60 61 61 61 61 62 62 63 63 63 64 64 64 65 65 65 66 66 67 68 69 69 70 71 72 73 74 74 75 76 78 78 79 80 81 82 83 84 84 85 86 88 88 89 89 90 91
46 46 47 47 48 48 49 49 50 50 51 51 51 52 52 52 52 53 53 53 54 54 55 55 55 56 56 57 57 57 58 58 58 58 58 59 59 59 59 59 60 60 61 60 60 61 61 61 61 62 62 62 63 63 64 64 65 66 67 68 68 69 70 72 73 74 75 76 77 78 79 80 81 82 82 83 84 85 85 86 87 88 88 88 88 88
45 45 46 46 47 47 47 48 49 49 49 49 50 50 50 50 50 51 51 52 52 52 53 53 54 54 55 55 56 56 56 57 57 57 57 57 57 57 57 57 58 59 59 59 58 59 59 59 60 60 60 60 61 62 62 63 64 65 66 66 67 69 71 72 73 74 76 77 78 79 80 81 82 82 83 84 84 84 85 85 85 85 85 84 84 83
44 45 45 46 46 46 47 47 48 48 48 48 48 49 49 49 49 49 50 50 50 51 51 51 52 52 53 53 54 54 54 54 54 54 54 54 55 55 55 55 56 56 56 56 56 56 57 57 58 58 59 59 60 60 61 62 64 65 65 66 68 70 72 73 74 76 77 78 80 80 81 81 82 82 83 83 83 83 82 82 81 81 81 81 79 77
44 44 45 45 45 46 46 47 47 47 47 47 48 48 48 48 48 48 48 48 49 49 49 49 49 50 50 51 52 52 52 52 52 52 52 52 52 52 53 53 53 53 53 53 54 55 55 56 56 57 58 59 59 60 61 63 65 66 67 68 69 71 72 74 75 77 78 79 80 81 81 81 81 81 81 80 79 79 78 77 76 76 75 74 73 71
43 44 44 44 45 45 46 46 46 46 47 47 47 48 48 48 47 47 47 48 48 48 48 48 48 48 48 49 50 50 50 50 50 50 50 50 50 51 51 51 51 51 51 51 52 54 55 55 56 57 59 60 60 60 61 64 66 67 68 70 71 72 73 75 76 77 77 78 79 80 80 79 78 77 77 75 74 73 72 71 70 69 68 66 64 63
43 43 43 44 44 45 45 45 46 46 46 46 47 47 47 47 47 47 47 47 47 48 47 47 47 47 47 48 48 49 48 48 48 49 49 49 49 49 49 49 50 50 50 50 52 53 55 56 57 58 60 60 61 62 63 65 67 68 70 71 72 73 73 75 76 77 76 77 77 77 77 75 74 73 72 70 69 67 65 64 63 62 60 58 56 55
42 42 43 43 44 44 44 45 45 46 46 46 46 47 47 47 46 46 46 46 46 46 46 46 45 45 45 46 47 47 47 47 47 48 48 48 48 48 48 48 49 49 50 51 52 54 56 57 59 60 61 61 62 64 65 67 68 70 71 72 73 73 74 75 75 75 74 74 74 73 72 70 68 67 66 65 63 60 58 56 55 54 53 52 50 48
41 42 42 43 43 43 44 44 44 45 45 45 46 46 46 46 45 45 45 45 45 45 45 44 43 43 43 45 45 45 45 46 47 47 47 47 47 47 48 48 49 50 51 53 54 56 57 58 60 61 62 63 64 65 67 69 70 71 72 73 73 73 73 73 73 72 71 69 69 68 67 65 62 60 59 58 56 54 52 50 48 47 46 45 44 43
41 41 41 42 42 42 43 43 43 43 44 44 44 45 44 44 44 43 43 43 43 43 42 42 41 41 42 43 43 43 43 45 46 46 47 47 47 47 48 49 50 51 53 54 56 57 58 60 61 62 63 64 65 67 69 70 71 71 72 73 73 72 70 70 69 68 66 64 63 63 62 59 56 55 54 52 50 48 47 45 44 42 41 40 40 39
40 40 40 41 41 41 42 42 42 42 42 43 43 43 42 42 42 41 42 41 41 41 40 40 40 40 41 42 42 42 42 43 45 46 46 47 47 48 49 50 52 53 55 56 58 59 60 61 62 63 64 65 67 69 70 71 71 71 71 71 70 69 67 65 64 62 60 58 57 56 55 53 51 50 49 48 46 45 43 41 40 39 38 38 38 38
39 39 39 40 40 40 41 41 41 41 41 41 41 41 40 40 40 40 40 40 39 39 39 39 39 40 40 41 42 42 42 43 44 45 47 48 48 49 51 52 54 55 57 58 59 60 61 62 63 65 66 67 69 70 71 72 71 70 69 68 66 64 62 60 59 57 55 53 52 51 50 48 47 46 45 44 43 42 41 39 38 38 38 39 39 40
38 38 38 38 38 39 39 39 39 39 39 39 39 39 39 39 38 38 38 38 38 38 38 39 39 39 40 41 41 42 42 43 44 46 48 49 50 51 52 54 56 57 58 59 61 62 62 63 64 66 68 69 70 70 70 71 70 68 65 62 61 59 56 55 53 52 50 48 47 47 46 45 44 43 42 42 41 40 39 38 38 38 39 41 42 42
37 37 37 37 37 38 38 38 38 38 38 38 37 37 37 37 37 37 37 37 37 38 38 38 39 39 40 41 42 42 43 44 45 47 49 50 51 53 54 56 57 59 60 61 62 63 63 64 65 67 69 70 70 69 67 67 66 64 60 57 55 53 51 50 49 48 46 45 44 44 44 43 43 42 42 41 41 40 39 39 38 39 40 42 42 43
Wind_Direction
244 246 248 248 247 248 249 251 251 251 250 250 250 250 250 250 250 251 250 249 249 248 248 249 250 251 251 252 251 250 248 245 243 242 240 240 239 239 239 239 240 241 242 244 245 247 249 251 252 253 254 255 256 257 257 257 258 259 259 260 261 262 262 263 263 263 263 264 263 263 263 263 263 262 263 263 263 264 265 266 267 267 267 268 267 267
237 239 240 241 242 243 245 246 246 246 246 246 246 246 247 247 247 247 248 247 247 247 247 248 248 249 249 249 248 246 244 241 240 238 238 238 238 238 239 239 240 242 243 245 246 248 249 251 252 254 255 256 256 257 258 258 259 259 260 261 261 262 262 263 263 263 264 264 264 263 263 263 263 263 263 263 263 264 264 265 265 266 266 266 266 266
231 232 234 236 237 239 240 241 242 242 243 243 243 243 243 243 244 244 244 244 245 245 246 246 246 246 246 245 244 242 240 238 237 236 236 237 238 239 240 240 242 243 244 246 247 249 250 251 253 254 255 256 257 258 258 259 259 260 260 261 262 262 262 263 263 263 263 263 263 263 263 263 263 263 263 263 263 264 264 265 265 265 266 266 266 266
227 228 230 232 234 235 237 238 239 240 240 240 240 240 240 240 241 241 241 242 242 243 243 243 243 243 242 242 240 239 237 236 236 236 236 237 238 240 241 242 243 244 245 247 248 249 251 252 253 254 256 256 257 258 259 259 260 260 261 261 261 262 262 262 262 262 262 262 262 262 262 262 262 263 263 263 263 264 264 265 265 266 266 266 267 267
226 227 229 230 232 233 235 236 237 238 238 239 239 239 239 239 239 240 240 241 241 242 242 242 241 241 240 239 238 238 237 236 236 237 238 239 240 241 243 244 245 246 247 248 249 251 252 253 254 255 256 257 257 258 259 259 260 260 260 261 261 261 261 261 261 261 262 262 262 262 262 262 263 263 263 264 264 265 265 265 266 266 267 267 268 268
227 228 229 230 231 232 234 235 236 237 238 239 240 240 240 240 240 240 241 241 241 241 241 241 241 241 240 240 239 239 239 239 239 239 240 242 243 244 245 246 247 248 249 249 250 251 252 253 254 255 256 257 257 258 258 259 259 260 260 260 260 261 261 261 261 262 262 262 262 263 263 263 264 264 264 265 265 266 266 267 267 267 268 268 269 269
228 229 230 231 232 233 234 235 237 238 239 240 241 242 242 242 242 242 242 242 242 242 242 242 242 242 242 242 241 241 242 242 243 243 244 245 246 247 247 248 248 249 250 250 251 252 253 253 254 255 256 256 257 258 258 259 259 260 260 261 261 261 262 262 263 263 263 264 264 264 265 265 265 266 266 266 267 267 267 268 268 269 269 269 270 270
228 230 231 232 233 234 236 237 238 239 240 241 242 242 243 243 243 243 243 243 244 244 244 244 244 244 244 244 244 244 244 245 245 246 247 247 248 248 249 249 250 250 251 251 252 252 253 254 254 255 256 256 257 258 259 260 260 261 262 262 263 263 264 264 265 265 266 266 266 267 267 267 267 267 268 268 268 268 269 269 269 269 270 270 270 271
229 230 231 232 234 235 236 237 239 240 241 241 242 242 242 242 243 243 244 244 244 244 245 245 245 245 245 245 246 246 246 246 247 247 248 248 249 249 250 250 251 251 251 252 252 253 254 255 255 256 257 258 259 260 261 262 263 263 264 265 265 266 267 267 268 268 268 269 269 269 269 269 269 269 269 269 270 270 270 270 270 270 271 271 271 271
232 232 232 233 234 235 236 237 238 239 240 240 241 242 242 242 242 243 243 244 244 245 245 245 246 246 246 246 247 247 247 247 248 248 249 249 250 250 251 251 252 253 253 254 254 255 256 257 258 259 260 261 262 263 264 265 266 267 268 268 269 269 270 270 271 271 271 271 271 271 271 271 271 271 271 271 271 271 271 271 271 272 272 272 272 272
239 238 238 238 238 238 238 239 239 240 240 241 241 242 242 243 243 243 243 244 244 245 245 246 247 247 248 248 248 249 249 250 250 251 251 252 253 253 254 255 255 256 257 258 258 259 260 261 262 263 264 265 266 267 268 269 270 270 271 271 272 272 272 273 273 273 273 273 273 273 273 273 273 273 273 273 273 273 273 273 273 273 273 273 274 274
247 246 246 245 245 245 244 244 244 244 244 244 244 244 244 245 245 245 246 246 247 247 248 249 249 250 251 252 252 253 253 254 255 255 256 257 258 258 259 260 261 261 262 263 263 264 265 266 267 267 268 269 270 270 271 272 272 272 273 273 274 274 274 274 274 274 274 274 274 274 274 274 274 274 274 274 274 274 274 275 275 275 275 275 275 275
254 253 252 252 252 251 251 251 251 251 251 251 251 251 250 250 250 250 251 251 252 252 253 253 254 255 255 256 257 258 258 259 260 261 261 262 263 263 264 265 266 266 267 267 268 268 269 269 270 270 271 271 272 272 273 273 273 274 274 274 275 275 275 275 275 275 275 275 275 275 275 275 275 276 276 276 276 276 276 276 276 276 276 277 277 277
260 259 258 257 257 256 256 256 256 256 256 255 255 255 256 256 256 256 257 257 257 257 258 258 259 259 260 260 261 262 262 263 264 264 265 265 266 267 267 268 268 269 269 270 270 271 271 271 272 272 273 273 273 274 274 274 275 275 275 275 276 276 276 276 276 276 276 276 276 276 276 276 277 277 277 277 277 277 277 277 277 277 277 277 277 277
265 263 263 262 261 260 259 259 258 258 258 257 257 258 258 259 259 259 260 260 260 260 261 261 262 262 262 263 263 264 265 265 266 266 267 267 268 268 269 269 269 270 270 271 271 272 272 273 273 274 274 274 274 274 275 275 275 276 276 276 276 277 277 277 277 277 277 277 277 277 277 277 277 277 277 278 278 278 278 278 277 278 277 277 277 277
267 267 266 265 264 263 262 261 260 260 259 259 259 259 259 259 259 259 260 260 261 261 262 262 263 263 263 263 264 265 265 266 266 267 267 268 268 268 269 269 270 270 271 271 271 272 273 273 273 274 274 274 274 275 275 275 275 276 276 276 276 276 277 277 277 277 277 277 277 277 277 277 277 277 277 277 277 277 277 277 277 277 277 277 277 277
267 267 267 266 266 265 263 263 262 261 261 260 260 260 260 259 259 259 260 260 260 261 261 261 262 262 263 263 264 264 265 265 266 266 267 267 268 268 268 268 269 269 270 270 271 271 272 272 273 273 273 273 274 274 274 274 275 275 275 275 275 275 275 275 275 275 275 275 275 275 275 275 275 275 275 275 275 275 275 275 275 275 275 275 275 275
263 265 266 266 266 265 265 264 263 262 262 262 261 261 261 260 260 260 260 260 260 260 260 260 261 261 262 262 262 263 263 264 265 265 266 266 267 267 267 267 268 268 268 269 269 269 270 270 271 271 271 272 272 272 273 273 273 273 274 274 273 273 273 273 272 272 272 272 272 272 272 272 272 272 273 273 273 273 273 273 273 273 273 274 274 274
259 261 263 264 265 265 265 265 264 264 263 262 262 262 262 261 261 261 261 261 260 260 260 260 260 261 261 261 262 262 262 262 263 264 265 265 265 266 266 266 266 267 267 267 268 268 268 269 269 269 270 270 271 271 271 272 272 272 273 273 273 273 273 272 272 272 271 271 271 271 271 271 271 271 271 272 272 272 272 272 273 273 273 273 273 274
257 258 260 261 262 264 265 265 265 264 264 264 263 263 263 262 262 262 261 261 261 261 261 261 261 261 261 261 261 261 261 261 262 263 263 264 264 265 265 265 265 266 266 266 267 267 267 268 268 269 269 270 270 270 271 271 272 272 272 273 273 274 274 274 273 273 273 273 272 272 272 272 272 272 272 272 272 272 273 273 273 273 274 274 274 274
256 257 257 258 260 261 262 263 264 265 265 265 265 264 264 263 263 263 262 262 262 261 261 261 261 261 261 261 261 262 262 261 262 262 263 263 264 265 265 265 265 265 266 266 267 267 268 268 269 269 269 270 270 271 271 271 272 272 273 273 274 274 274 275 275 275 275 275 274 274 274 274 274 274 274 274 274 274 274 274 274 275 275 275 275 275
257 257 257 258 258 259 260 261 262 263 264 265 265 265 265 264 264 264 264 263 263 263 263 262 262 262 262 262 263 263 263 262 262 262 263 263 264 265 265 265 265 266 267 267 267 268 268 269 269 270 270 271 271 271 272 272 272 273 273 273 274 274 274 275 275 275 275 276 276 276 276 276 276 276 276 276 276 276 276 276 276 276 276 276 276 277
258 257 258 258 258 258 259 260 260 261 262 263 264 264 265 265 265 265 265 265 265 265 265 265 265 265 265 265 265 265 264 263 263 263 263 263 264 265 265 266 266 267 267 268 268 269 269 270 270 270 271 271 271 272 272 272 272 273 273 273 273 274 274 275 275 275 276 276 276 276 276 276 276 276 276 277 277 277 277 277 277 277 277 277 278 278
258 258 258 258 258 258 259 259 260 260 261 261 262 263 264 264 265 265 266 266 266 266 267 267 267 267 267 267 266 266 266 266 266 265 265 265 265 266 266 266 267 267 268 268 268 269 269 270 270 270 271 271 271 272 272 272 272 273 273 273 273 274 274 275 275 275 276 276 276 276 276 276 276 277 277 277 277 277 277 277 278 278 278 278 278 279
259 259 259 259 259 259 259 260 260 260 260 261 261 262 263 263 264 264 265 266 266 267 267 267 268 268 268 268 268 268 269 269 268 268 268 268 267 267 267 267 267 268 268 268 268 269 269 270 270 270 270 271 271 272 272 272 272 272 273 273 273 274 274 274 275 275 276 276 276 276 277 277 277 277 277 277 277 277 277 278 278 278 278 278 279 279
260 260 260 260 260 260 260 260 261 261 261 261 262 262 263 263 264 264 265 265 266 266 266 267 268 268 268 268 269 269 270 270 270 269 269 269 269 269 269 269 269 269 269 269 269 269 269 270 270 270 270 271 271 271 272 272 272 272 273 273 273 273 274 274 274 275 275 276 276 276 277 277 277 277 277 278 278 278 278 278 278 278 279 279 279 279
261 261 261 261 261 261 261 261 262 262 262 262 263 263 263 264 264 265 265 266 266 266 267 267 268 268 268 269 269 269 269 269 270 270 270 270 270 270 270 270 270 270 270 270 270 270 270 270 271 271 271 271 271 272 272 272 272 272 273 273 273 273 274 274 274 274 275 275 276 276 276 277 277 278 278 278 278 278 279 279 279 279 279 279 279 280
262 262 262 262 262 262 262 262 262 263 263 263 263 264 264 265 265 266 266 266 266 267 267 268 268 268 268 269 269 269 269 269 269 269 269 269 270 270 270 270 270 270 271 271 271 271 271 271 272 272 272 272 272 272 272 273 273 273 273 273 274 274 274 274 275 275 275 275 276 276 276 277 277 278 278 278 279 279 279 279 279 280 280 280 280 280
262 262 262 262 262 262 262 263 263 263 263 264 264 265 265 265 266 266 266 266 267 267 268 268 268 268 268 268 269 269 269 269 269 269 269 269 270 270 270 270 270 270 271 271 271 272 272 272 272 272 273 273 273 273 273 274 274 274 274 274 275 275 275 275 275 276 276 276 276 277 277 277 278 278 278 279 279 279 279 280 280 280 280 280 281 281
263 263 263 263 263 263 263 263 264 264 264 264 265 265 265 266 266 266 266 267 267 267 267 267 267 267 268 268 268 269 269 269 269 269 269 270 270 270 270 270 271 271 271 271 271 272 272 273 273 273 273 274 274 274 274 274 275 275 275 276 276 276 276 276 276 277 277 277 277 278 278 278 278 279 279 279 280 280 280 280 280 281 281 281 281 281
264 264 264 264 264 264 264 264 264 265 265 265 265 265 265 266 266 266 266 267 267 267 267 267 267 267 267 268 268 268 268 269 269 269 270 270 270 270 271 271 271 272 272 272 272 272 273 273 273 274 274 274 275 275 275 275 275 276 276 276 277 277 277 277 277 278 278 278 279 279 279 279 279 279 280 280 280 280 281 281 281 281 281 282 282 282
264 265 265 265 265 265 265 265 265 265 265 265 265 265 265 266 266 266 266 266 266 266 266 267 267 267 268 268 268 268 268 269 269 270 270 270 270 271 271 272 272 272 273 273 273 273 273 273 273 274 274 274 275 275 275 276 276 276 277 277 277 277 278 278 278 278 279 279 279 279 279 280 280 280 280 280 280 281 281 281 281 281 282 282 282 282
265 265 265 265 265 265 266 266 266 265 265 265 265 265 265 265 266 266 266 266 266 266 267 267 267 268 268 268 268 269 269 269 270 270 270 270 271 271 272 272 272 273 273 273 273 273 273 273 274 274 274 274 275 275 276 276 276 277 277 277 277 278 278 278 278 278 279 279 279 279 279 280 280 280 280 280 280 281 281 281 281 282 282 282 283 283
265 265 265 265 265 265 265 265 265 265 265 265 265 265 265 265 265 266 266 266 266 267 267 267 268 268 269 269 269 269 270 270 270 271 271 271 271 272 272 273 273 273 273 274 274 274 274 274 274 274 274 275 275 275 276 276 277 277 277 277 277 278 278 278 278 278 278 278 279 279 279 279 279 280 280 280 281 281 282 282 283 283 284 284 285 285
264 264 264 264 264 264 264 264 264 264 264 264 264 264 264 265 265 265 266 266 266 267 267 268 268 268 269 269 269 270 270 270 270 271 271 271 271 272 272 272 273 273 273 273 273 274 274 274 274 274 275 275 276 276 276 276 277 277 277 277 277 277 277 278 278 278 278 278 279 279 279 280 280 281 281 282 283 283 284 285 285 286 286 287 287 287
264 264 263 263 263 263 263 263 263 263 263 263 263 263 264 264 265 265 266 266 266 267 267 268 268 268 269 269 269 269 270 270 270 271 271 271 271 271 272 272 272 272 272 273 273 273 274 274 274 275 275 275 276 276 276 276 277 277 277 277 278 278 278 278 279 279 279 280 280 281 281 282 283 283 284 285 286 286 287 288 288 288 288 288 288 288
263 263 262 262 262 262 262 262 262 262 263 263 263 263 263 264 264 265 265 266 266 267 267 267 268 268 268 268 268 269 269 269 270 270 270 271 271 271 271 271 272 272 272 272 273 273 274 274 274 275 275 275 276 276 276 277 277 278 278 278 279 280 280 280 281 281 282 283 283 284 285 285 286 287 287 288 288 289 289 289 289 289 289 289 289 289
262 261 261 261 261 262 262 262 262 263 263 263 263 264 264 264 264 265 265 265 266 266 266 267 267 267 268 268 268 268 268 269 269 270 270 270 270 271 271 271 272 272 272 272 273 274 274 274 275 275 275 275 276 276 277 278 278 279 280 280 281 283 284 284 285 285 286 286 286 287 287 288 288 289 289 289 290 290 290 290 290 289 289 289 289 288
261 261 261 261 261 261 262 262 263 263 263 264 264 264 264 264 265 265 265 265 265 266 266 266 267 267 267 267 268 268 268 269 269 270 270 270 270 271 271 271 272 272 273 273 274 274 275 275 275 275 275 276 277 277 278 279 281 281 282 283 285 286 287 287 288 288 289 289 289 289 289 290 290 290 290 291 291 291 290 290 290 289 289 289 289 289
260 260 261 261 261 262 262 262 263 263 264 264 264 264 264 265 265 265 265 265 265 266 266 266 267 267 267 268 268 268 269 269 269 270 270 270 271 271 271 272 272 273 273 274 274 275 275 275 276 276 277 278 279 280 281 282 283 284 285 286 287 288 288 289 290 290 290 290 290 290 291 291 291 291 292 292 291 291 291 290 290 290 290 289 289 289
261 261 261 261 262 262 262 262 263 263 263 264 264 264 265 265 265 265 265 265 266 266 266 266 267 267 268 268 268 268 269 269 269 270 270 270 271 271 272 272 273 273 274 275 275 276 276 277 278 279 280 281 282 283 284 285 286 286 287 288 288 288 289 290 291 291 291 291 292 292 292 292 292 292 292 292 292 292 291 291 291 290 290 290 290 290
262 262 262 262 262 262 262 263 263 263 264 264 264 264 264 265 265 265 266 266 266 266 267 267 267 268 268 268 269 269 269 269 269 270 270 270 271 272 272 273 273 274 275 276 277 278 279 280 281 282 282 283 284 285 286 287 287 288 289 289 289 290 291 292 292 292 293 293 293 293 293 293 293 293 293 292 292 292 291 291 291 291 291 291 291 290
262 262 262 262 262 262 262 263 263 263 264 264 264 264 264 265 265 266 266 267 267 267 267 268 268 268 268 269 269 269 269 269 269 270 270 271 271 272 273 273 274 275 276 278 279 280 281 282 283 284 284 285 286 287 288 288 289 290 291 291 291 292 293 293 293 293 293 293 293 293 293 293 293 293 292 292 292 292 292 292 292 292 291 291 291 291
261 262 262 262 262 262 262 263 263 263 263 263 264 264 265 265 266 266 266 267 267 268 268 268 268 268 268 268 268 269 269 269 270 270 271 271 272 273 274 275 276 278 279 280 281 282 283 284 285 285 286 287 288 289 289 290 291 291 292 293 293 294 294 293 293 293 293 293 293 292 292 292 292 292 292 292 292 292 292 292 292 292 292 292 292 292
261 261 261 262 262 262 262 263 263 263 263 264 264 265 265 265 266 266 267 267 268 268 268 268 268 268 268 268 268 268 269 270 270 271 271 272 273 275 276 277 279 280 281 282 282 283 284 285 286 287 288 289 290 291 291 292 292 293 293 294 294 294 294 294 293 293 293 292 292 292 292 292 292 292 292 292 292 292 292 292 292 292 293 293 293 294
260 261 261 261 262 262 262 263 263 263 264 264 265 265 265 266 266 266 266 267 267 267 267 267 267 267 267 267 268 268 269 270 271 272 273 274 275 277 278 279 280 281 282 283 284 285 285 286 287 288 290 291 292 292 293 293 294 295 295 295 295 295 295 294 294 293 292 292 292 292 292 292 292 292 292 292 292 292 292 293 293 293 294 294 294 295
260 260 261 261 262 262 263 263 264 264 264 265 265 265 265 265 266 266 266 266 266 266 266 266 266 266 266 267 267 268 270 271 272 274 275 276 277 279 280 281 282 283 284 284 285 286 287 288 289 290 291 293 293 294 294 295 295 296 296 295 295 295 294 294 293 292 292 292 292 292 291 292 292 292 292 292 292 292 293 294 294 295 295 295 295 295
259 260 261 262 262 263 264 264 264 264 264 264 264 265 265 265 265 265 265 265 265 265 265 265 265 265 266 266 268 269 270 272 273 275 277 278 279 280 281 282 283 284 285 286 287 288 289 290 291 292 293 294 295 295 296 296 296 296 296 296 295 295 294 293 292 292 291 291 291 291 291 291 292 292 292 292 293 294 294 295 296 296 296 295 295 295
259 260 261 262 263 264 264 264 264 264 264 264 264 264 263 263 263 263 263 264 264 264 264 264 265 265 266 267 268 270 271 273 274 276 278 279 280 282 283 284 285 286 286 287 288 289 290 291 293 294 295 296 297 297 297 297 297 297 296 296 295 294 293 292 291 291 291 291 291 291 291 292 292 292 293 293 294 294 295 295 296 296 295 295 295 295
259 261 262 263 263 264 264 264 264 263 263 263 262 262 262 262 262 262 262 263 263 263 264 264 265 266 267 268 269 271 272 274 275 277 278 280 281 283 284 285 286 287 288 289 290 291 292 293 295 296 297 298 298 298 297 297 297 296 296 295 293 292 291 291 290 290 290 290 290 290 291 292 292 293 293 294 294 294 294 295 294 294 294 294 294 294
259 261 262 263 264 264 264 264 263 263 262 262 261 261 262 262 262 262 262 262 263 263 264 265 265 266 268 269 270 272 273 275 277 278 280 281 283 284 285 286 287 288 289 290 291 292 294 295 296 297 298 298 298 297 297 297 296 295 294 293 291 290 290 289 289 288 288 288 289 290 290 291 292 292 293 293 293 293 293 293 293 292 292 292 292 293
Height
5642 5642 5642 5643 5644 5645 5646 5647 5649 5650 5650 5651 5651 5651 5652 5654 5655 5656 5657 5659 5659 5660 5661 5662 5663 5664 5665 5666 5667 5668 5668 5669 5669 5670 5671 5671 5672 5673 5673 5674 5674 5675 5675 5676 5676 5677 5678 5678 5678 5679 5679 5679 5679 5679 5680 5680 5680 5681 5681 5682 5682 5682 5682 5682 5683 5683 5683 5683 5683 5683 5683 5683 5683 5683 5683 5683 5683 5683 5683 5683 5683 5683 5683 5683 5683 5683
5639 5639 5640 5640 5641 5642 5643 5644 5645 5646 5647 5647 5648 5648 5649 5650 5651 5652 5653 5654 5655 5656 5657 5659 5659 5660 5661 5662 5663 5664 5665 5665 5666 5667 5668 5668 5669 5669 5670 5670 5671 5671 5672 5672 5673 5673 5674 5674 5674 5674 5674 5675 5675 5676 5676 5676 5677 5677 5677 5678 5678 5678 5678 5678 5678 5679 5679 5679 5679 5679 5679 5679 5679 5679 5679 5679 5679 5679 5679 5679 5679 5679 5679 5679 5679 5679
5636 5636 5637 5637 5637 5639 5639 5640 5641 5642 5643 5644 5644 5644 5645 5646 5647 5648 5649 5650 5651 5652 5654 5655 5656 5657 5658 5659 5659 5660 5661 5662 5663 5664 5664 5665 5665 5666 5666 5667 5667 5668 5668 5669 5669 5669 5669 5670 5670 5670 5671 5671 5671 5672 5672 5672 5673 5673 5673 5674 5674 5674 5674 5674 5674 5674 5674 5674 5674 5674 5674 5674 5674 5674 5674 5674 5674 5674 5674 5674 5674 5674 5674 5674 5674 5674
5633 5633 5633 5633 5634 5635 5636 5637 5638 5639 5639 5640 5641 5641 5642 5643 5644 5644 5645 5646 5648 5649 5650 5651 5652 5653 5654 5655 5656 5657 5658 5659 5659 5660 5661 5661 5662 5662 5663 5663 5664 5664 5664 5664 5665 5665 5665 5666 5666 5666 5667 5667 5667 5668 5668 5669 5669 5669 5669 5669 5670 5670 5670 5670 5670 5670 5670 5670 5670 5670 5670 5670 5670 5670 5670 5670 5670 5670 5670 5670 5670 5670 5670 5670 5670 5670
5630 5630 5630 5631 5632 5632 5633 5634 5635 5636 5637 5638 5638 5639 5639 5640 5641 5641 5642 5643 5644 5645 5646 5647 5648 5649 5650 5651 5652 5653 5654 5655 5656 5656 5657 5658 5658 5658 5659 5659 5659 5660 5660 5660 5661 5661 5661 5662 5662 5662 5663 5663 5664 5664 5664 5664 5665 5665 5665 5665 5666 5666 5666 5666 5666 5666 5666 5666 5666 5666 5666 5666 5666 5666 5666 5666 5666 5666 5666 5666 5666 5666 5665 5665 5665 5665
5628 5629 5629 5630 5630 5631 5631 5632 5633 5634 5635 5635 5636 5637 5637 5638 5638 5639 5640 5640 5641 5642 5643 5644 5645 5646 5647 5648 5649 5649 5650 5651 5652 5653 5653 5654 5654 5655 5655 5655 5656 5656 5656 5657 5657 5657 5657 5658 5658 5658 5659 5659 5659 5660 5660 5660 5661 5661 5661 5661 5662 5662 5662 5662 5662 5662 5662 5662 5662 5662 5662 5662 5662 5662 5662 5662 5662 5662 5662 5661 5661 5661 5661 5661 5661 5661
5627 5627 5628 5629 5629 5629 5629 5630 5631 5632 5633 5634 5634 5634 5635 5635 5636 5637 5637 5638 5638 5639 5640 5641 5642 5643 5644 5644 5645 5646 5647 5648 5649 5649 5650 5650 5651 5651 5651 5652 5652 5652 5653 5653 5653 5653 5654 5654 5654 5654 5655 5655 5655 5656 5656 5656 5657 5657 5657 5657 5658 5658 5658 5658 5658 5658 5658 5658 5658 5658 5658 5658 5658 5658 5658 5658 5657 5657 5657 5657 5657 5657 5656 5656 5656 5656
5624 5625 5626 5627 5627 5627 5628 5629 5629 5630 5630 5631 5632 5633 5633 5633 5634 5634 5634 5635 5636 5636 5637 5638 5639 5639 5640 5641 5642 5643 5644 5644 5645 5646 5646 5647 5647 5648 5648 5648 5649 5649 5649 5649 5649 5649 5650 5650 5650 5651 5651 5651 5652 5652 5652 5652 5653 5653 5653 5653 5653 5653 5653 5654 5654 5654 5654 5654 5654 5654 5654 5654 5654 5653 5653 5653 5653 5653 5653 5652 5652 5652 5652 5652 5651 5651
5622 5623 5623 5624 5624 5625 5625 5626 5626 5627 5628 5629 5629 5630 5631 5631 5631 5632 5632 5633 5633 5634 5634 5635 5636 5637 5637 5638 5639 5639 5640 5641 5642 5642 5643 5643 5644 5644 5644 5645 5645 5645 5645 5646 5646 5646 5646 5646 5647 5647 5647 5647 5648 5648 5648 5648 5648 5649 5649 5649 5649 5649 5649 5649 5649 5649 5649 5649 5649 5649 5649 5649 5649 5649 5649 5648 5648 5648 5648 5648 5648 5647 5647 5647 5647 5647
5619 5619 5620 5621 5621 5622 5623 5623 5624 5624 5625 5626 5626 5627 5628 5629 5629 5629 5630 5630 5630 5631 5631 5632 5633 5634 5634 5635 5636 5636 5637 5638 5638 5639 5639 5639 5640 5640 5641 5641 5641 5642 5642 5642 5642 5642 5642 5643 5643 5643 5643 5643 5644 5644 5644 5644 5644 5644 5644 5644 5644 5644 5644 5644 5644 5644 5644 5644 5644 5644 5644 5644 5644 5644 5644 5644 5643 5643 5643 5643 5643 5643 5642 5642 5642 5642
5615 5615 5616 5617 5618 5619 5619 5620 5620 5621 5622 5623 5623 5624 5625 5625 5626 5626 5627 5627 5627 5628 5629 5629 5630 5630 5631 5632 5633 5633 5634 5634 5635 5635 5636 5636 5636 5637 5637 5637 5638 5638 5638 5638 5638 5638 5638 5639 5639 5639 5639 5639 5639 5639 5639 5639 5639 5639 5639 5639 5639 5639 5639 5639 5639 5639 5639 5639 5639 5639 5639 5639 5639 5639 5639 5639 5639 5638 5638 5638 5638 5638 5637 5637 5637 5636
5611 5612 5613 5614 5614 5615 5615 5616 5616 5617 5618 5619 5619 5620 5621 5622 5622 5623 5624 5624 5624 5625 5626 5626 5627 5627 5628 5629 5629 5630 5630 5631 5631 5631 5632 5632 5633 5633 5633 5634 5634 5634 5634 5634 5634 5634 5634 5634 5634 5634 5634 5635 5635 5635 5635 5635 5635 5635 5635 5635 5635 5635 5635 5635 5635 5635 5634 5634 5634 5634 5634 5634 5634 5634 5634 5634 5634 5633 5633 5633 5633 5632 5632 5632 5631 5631
5608 5609 5610 5610 5611 5611 5612 5612 5613 5614 5614 5615 5615 5616 5616 5617 5618 5619 5620 5620 5621 5621 5622 5623 5623 5624 5624 5625 5625 5626 5627 5627 5627 5627 5628 5628 5628 5629 5629 5629 5629 5629 5629 5629 5629 5629 5629 5630 5630 5630 5630 5630 5630 5630 5630 5630 5630 5630 5630 5630 5630 5630 5630 5630 5630 5630 5629 5629 5629 5629 5629 5629 5629 5629 5629 5629 5628 5628 5628 5628 5627 5627 5627 5626 5626 5625
5604 5605 5606 5607 5608 5608 5609 5609 5610 5610 5611 5611 5611 5612 5612 5613 5615 5616 5617 5617 5617 5618 5618 5619 5620 5620 5620 5621 5622 5622 5623 5623 5623 5623 5624 5624 5624 5624 5625 5625 5625 5625 5625 5625 5625 5625 5625 5625 5625 5625 5625 5625 5625 5625 5625 5625 5625 5625 5625 5625 5625 5625 5625 5625 5625 5625 5624 5624 5624 5624 5624 5624 5624 5624 5623 5623 5623 5623 5622 5622 5622 5621 5621 5621 5620 5620
5599 5600 5602 5603 5603 5604 5605 5606 5607 5607 5608 5608 5609 5609 5610 5611 5612 5613 5613 5613 5613 5614 5615 5616 5616 5616 5617 5618 5618 5618 5619 5619 5619 5619 5620 5620 5619 5620 5621 5621 5621 5620 5620 5621 5620 5620 5620 5621 5621 5621 5621 5621 5621 5620 5620 5620 5620 5620 5620 5620 5620 5620 5620 5620 5620 5620 5619 5619 5619 5619 5619 5619 5619 5618 5618 5618 5618 5617 5617 5617 5616 5616 5616 5615 5615 5614
5595 5596 5598 5598 5599 5600 5601 5602 5603 5604 5604 5605 5606 5607 5608 5609 5609 5609 5610 5610 5610 5611 5612 5612 5612 5613 5613 5614 5614 5615 5615 5615 5616 5616 5616 5616 5616 5616 5617 5617 5617 5616 5616 5616 5616 5616 5616 5616 5617 5617 5616 5616 5616 5616 5616 5616 5616 5616 5616 5616 5616 5615 5615 5615 5615 5615 5615 5614 5614 5614 5614 5614 5614 5613 5613 5613 5613 5612 5612 5612 5611 5611 5610 5610 5609 5609
5592 5593 5594 5594 5595 5596 5597 5598 5599 5599 5600 5601 5602 5604 5604 5605 5605 5606 5607 5607 5607 5608 5609 5609 5609 5609 5609 5610 5611 5611 5612 5612 5612 5612 5612 5612 5612 5612 5613 5614 5613 5612 5612 5612 5612 5612 5612 5612 5613 5613 5612 5612 5612 5611 5611 5611 5611 5611 5611 5611 5611 5611 5611 5611 5611 5611 5610 5610 5610 5610 5610 5609 5609 5609 5609 5608 5608 5607 5607 5607 5606 5606 5605 5604 5604 5604
5590 5590 5590 5591 5591 5592 5593 5594 5595 5595 5596 5597 5599 5599 5600 5601 5602 5602 5603 5604 5604 5604 5605 5605 5605 5605 5606 5607 5607 5608 5608 5609 5609 5609 5609 5608 5608 5607 5609 5610 5610 5609 5608 5608 5608 5608 5608 5609 5609 5609 5608 5608 5608 5608 5607 5607 5607 5607 5607 5606 5606 5606 5606 5606 5606 5606 5606 5606 5606 5605 5605 5605 5604 5604 5604 5604 5603 5603 5602 5601 5601 5600 5599 5599 5598 5598
5587 5588 5588 5588 5589 5589 5589 5590 5591 5591 5592 5594 5594 5595 5596 5597 5598 5599 5599 5599 5600 5600 5600 5601 5601 5602 5602 5603 5603 5603 5604 5606 5606 5605 5604 5604 5603 5603 5604 5606 5606 5605 5604 5604 5604 5604 5604 5605 5605 5604 5604 5604 5604 5604 5604 5603 5603 5603 5602 5601 5601 5600 5600 5600 5600 5600 5600 5600 5600 5600 5600 5599 5599 5599 5598 5598 5597 5597 5596 5595 5595 5594 5594 5593 5592 5591
5584 5585 5585 5585 5586 5586 5587 5587 5587 5588 5589 5589 5590 5592 5593 5593 5594 5594 5595 5595 5596 5596 5597 5598 5598 5598 5598 5599 5599 5599 5600 5602 5602 5602 5601 5600 5599 5599 5600 5602 5602 5602 5601 5600 5599 5600 5601 5601 5601 5600 5600 5600 5600 5599 5599 5599 5599 5598 5598 5597 5596 5595 5594 5593 5593 5593 5593 5593 5593 5593 5593 5593 5593 5592 5592 5591 5591 5590 5589 5589 5588 5587 5587 5586 5585 5584
5580 5581 5582 5582 5583 5584 5584 5584 5584 5584 5585 5585 5587 5588 5588 5588 5589 5590 5591 5591 5592 5592 5593 5594 5594 5594 5594 5594 5595 5595 5596 5598 5599 5598 5597 5596 5595 5595 5595 5597 5598 5598 5597 5596 5595 5596 5596 5597 5596 5596 5595 5595 5595 5595 5594 5594 5594 5594 5593 5592 5591 5589 5589 5587 5587 5586 5586 5586 5586 5586 5586 5586 5586 5585 5585 5584 5584 5583 5583 5582 5581 5580 5580 5579 5579 5578
5577 5577 5578 5579 5580 5580 5580 5580 5580 5581 5582 5582 5583 5584 5583 5584 5585 5586 5586 5586 5587 5588 5589 5589 5589 5589 5589 5590 5590 5590 5591 5593 5594 5594 5593 5593 5592 5591 5591 5592 5593 5594 5593 5592 5591 5591 5592 5592 5592 5591 5591 5590 5590 5590 5590 5589 5589 5589 5588 5587 5586 5584 5584 5582 5581 5581 5581 5580 5580 5580 5580 5579 5579 5579 5578 5577 5577 5576 5575 5575 5574 5574 5573 5572 5572 5571
5573 5573 5574 5575 5576 5576 5576 5576 5577 5578 5578 5579 5579 5579 5579 5580 5581 5581 5581 5582 5583 5584 5584 5584 5584 5584 5585 5586 5585 5585 5585 5587 5588 5589 5589 5589 5588 5587 5586 5588 5589 5590 5589 5587 5587 5587 5588 5588 5587 5586 5586 5585 5585 5585 5585 5584 5584 5583 5583 5582 5580 5579 5579 5578 5577 5576 5575 5575 5574 5574 5574 5573 5573 5572 5571 5570 5570 5569 5568 5568 5567 5566 5565 5565 5564 5564
5569 5569 5570 5571 5571 5572 5572 5573 5574 5574 5574 5575 5575 5575 5575 5576 5577 5577 5577 5577 5578 5579 5579 5579 5580 5580 5580 5580 5580 5580 5580 5581 5583 5584 5584 5585 5584 5583 5582 5584 5585 5585 5584 5583 5583 5583 5584 5583 5582 5581 5581 5581 5580 5580 5580 5579 5579 5578 5577 5576 5575 5574 5574 5573 5572 5570 5569 5569 5568 5568 5567 5567 5566 5565 5565 5564 5563 5562 5561 5561 5560 5559 5559 5558 5557 5557
5564 5565 5565 5566 5567 5567 5568 5568 5569 5569 5570 5570 5571 5571 5571 5572 5572 5573 5573 5573 5574 5575 5575 5576 5576 5576 5575 5575 5576 5576 5576 5576 5577 5579 5580 5579 5579 5579 5578 5579 5580 5581 5579 5578 5578 5579 5580 5579 5577 5576 5576 5576 5576 5575 5574 5574 5573 5572 5571 5570 5570 5569 5569 5568 5567 5565 5564 5563 5562 5561 5561 5560 5559 5559 5558 5557 5556 5556 5555 5554 5553 5552 5552 5551 5551 5550
5559 5560 5561 5562 5562 5563 5563 5564 5564 5565 5565 5566 5567 5567 5567 5568 5568 5569 5569 5569 5570 5570 5571 5571 5572 5571 5571 5571 5572 5572 5571 5571 5572 5574 5575 5574 5574 5574 5574 5574 5575 5576 5575 5574 5574 5574 5575 5574 5572 5571 5571 5571 5571 5570 5569 5569 5568 5567 5566 5565 5564 5564 5563 5562 5561 5560 5559 5558 5557 5555 5554 5554 5553 5552 5551 5550 5549 5549 5548 5547 5546 5545 5545 5544 5544 5543
5555 5556 5556 5557 5558 5558 5559 5559 5560 5560 5561 5562 5562 5563 5563 5564 5564 5565 5565 5565 5565 5566 5567 5568 5567 5567 5567 5568 5568 5568 5567 5566 5567 5569 5569 5570 5570 5569 5569 5569 5569 5570 5570 5569 5569 5569 5570 5569 5568 5566 5566 5566 5565 5565 5564 5563 5562 5561 5560 5560 5559 5558 5558 5557 5556 5555 5554 5553 5551 5550 5549 5548 5546 5545 5544 5544 5543 5542 5541 5540 5539 5538 5537 5537 5536 5536
5550 5551 5552 5552 5553 5554 5554 5554 5555 5556 5556 5557 5558 5558 5559 5559 5560 5560 5560 5560 5561 5562 5563 5563 5563 5562 5562 5563 5563 5563 5562 5562 5562 5563 5564 5565 5566 5565 5564 5563 5564 5565 5566 5565 5564 5564 5564 5564 5563 5562 5561 5560 5560 5559 5558 5557 5556 5555 5555 5554 5553 5553 5551 5550 5549 5549 5548 5547 5546 5544 5543 5542 5540 5539 5538 5537 5536 5535 5534 5532 5531 5530 5529 5529 5529 5528
5546 5547 5547 5548 5549 5549 5549 5550 5551 5551 5552 5552 5553 5553 5554 5555 5556 5556 5555 5555 5557 5558 5559 5558 5558 5558 5558 5558 5558 5558 5557 5557 5557 5557 5559 5560 5561 5560 5558 5558 5559 5560 5561 5560 5559 5559 5559 5559 5558 5557 5556 5555 5554 5554 5552 5551 5550 5549 5549 5549 5548 5546 5545 5544 5544 5543 5542 5541 5540 5539 5537 5536 5534 5533 5532 5530 5529 5528 5526 5525 5524 5523 5522 5521 5520 5519
5542 5542 5543 5544 5544 5544 5545 5546 5546 5547 5547 5548 5549 5549 5549 5550 5551 5551 5550 5551 5553 5554 5554 5553 5553 5553 5554 5554 5554 5553 5552 5551 5550 5551 5554 5556 5556 5554 5553 5553 5554 5555 5555 5555 5555 5555 5554 5553 5552 5551 5551 5550 5549 5548 5546 5545 5544 5544 5543 5543 5541 5540 5539 5538 5537 5536 5535 5534 5534 5532 5531 5530 5528 5527 5525 5524 5522 5521 5519 5517 5516 5514 5514 5513 5513 5511
5538 5538 5539 5539 5539 5540 5541 5541 5542 5542 5543 5543 5544 5544 5545 5545 5546 5546 5546 5547 5548 5549 5549 5548 5548 5548 5549 5549 5549 5548 5546 5545 5545 5547 5550 5551 5551 5549 5547 5548 5549 5549 5549 5549 5550 5550 5549 5548 5546 5546 5546 5545 5544 5542 5540 5539 5539 5538 5538 5537 5535 5534 5533 5531 5531 5530 5529 5528 5527 5525 5524 5523 5521 5520 5518 5517 5515 5514 5512 5510 5508 5507 5506 5505 5504 5504
5533 5534 5534 5534 5535 5536 5536 5537 5537 5538 5538 5539 5539 5539 5540 5540 5541 5541 5542 5542 5543 5544 5544 5543 5543 5544 5544 5544 5544 5543 5541 5540 5540 5542 5545 5546 5545 5543 5542 5543 5544 5544 5543 5543 5544 5544 5544 5543 5541 5541 5540 5540 5538 5536 5534 5533 5533 5533 5532 5531 5529 5527 5526 5525 5524 5524 5523 5521 5520 5519 5517 5516 5514 5513 5511 5510 5508 5507 5505 5503 5501 5499 5498 5498 5497 5496
5529 5529 5530 5530 5531 5531 5532 5532 5532 5533 5533 5534 5534 5534 5535 5535 5536 5536 5537 5537 5538 5538 5539 5539 5539 5539 5539 5539 5539 5538 5536 5535 5536 5537 5539 5541 5540 5539 5538 5538 5539 5539 5537 5537 5538 5538 5539 5538 5536 5536 5535 5535 5533 5531 5529 5528 5527 5527 5526 5525 5523 5521 5519 5519 5518 5518 5516 5514 5513 5512 5510 5509 5508 5506 5505 5503 5502 5500 5498 5496 5494 5492 5491 5490 5489 5488
5525 5525 5525 5526 5527 5527 5527 5528 5528 5528 5529 5529 5529 5529 5530 5530 5531 5531 5532 5532 5532 5533 5533 5533 5534 5534 5534 5534 5533 5533 5531 5531 5531 5532 5534 5535 5535 5534 5533 5533 5534 5533 5532 5532 5532 5532 5532 5532 5531 5530 5530 5529 5528 5526 5524 5523 5522 5521 5519 5519 5517 5515 5513 5512 5512 5511 5510 5508 5507 5505 5504 5503 5501 5500 5499 5497 5495 5493 5491 5489 5487 5485 5483 5481 5480 5479
5520 5521 5521 5522 5522 5523 5523 5523 5524 5524 5524 5524 5524 5525 5525 5525 5526 5526 5526 5527 5527 5527 5528 5528 5528 5528 5529 5529 5528 5527 5526 5526 5526 5527 5529 5530 5530 5529 5528 5528 5528 5528 5527 5527 5526 5526 5526 5526 5525 5525 5524 5524 5523 5521 5519 5518 5516 5515 5513 5512 5511 5509 5507 5506 5505 5504 5504 5502 5500 5499 5497 5496 5495 5493 5492 5490 5488 5486 5484 5482 5479 5477 5474 5472 5470 5469
5516 5516 5517 5517 5518 5518 5518 5519 5519 5519 5519 5519 5520 5520 5520 5521 5521 5521 5522 5522 5522 5522 5523 5523 5523 5523 5523 5523 5523 5522 5521 5520 5521 5522 5524 5524 5524 5524 5523 5523 5522 5522 5522 5522 5521 5521 5521 5520 5520 5519 5519 5519 5517 5515 5513 5512 5511 5509 5508 5505 5504 5502 5501 5499 5498 5498 5496 5495 5494 5492 5490 5489 5488 5486 5484 5483 5481 5479 5477 5474 5471 5469 5466 5464 5461 5459
5512 5512 5512 5513 5513 5514 5514 5514 5514 5514 5515 5515 5515 5515 5516 5516 5517 5517 5517 5517 5518 5518 5518 5518 5518 5518 5518 5518 5518 5517 5516 5516 5516 5517 5518 5518 5518 5518 5519 5518 5516 5516 5517 5517 5516 5515 5515 5515 5514 5514 5513 5513 5512 5510 5508 5506 5505 5504 5502 5499 5497 5495 5494 5492 5491 5490 5489 5488 5486 5484 5483 5481 5480 5479 5477 5475 5473 5471 5469 5466 5463 5460 5457 5455 5452 5449
5507 5507 5508 5508 5509 5509 5509 5509 5509 5510 5510 5510 5510 5511 5511 5512 5512 5512 5513 5513 5513 5513 5513 5513 5513 5513 5513 5513 5513 5512 5512 5511 5511 5512 5512 5512 5513 5513 5513 5512 5511 5510 5511 5511 5511 5510 5509 5509 5509 5508 5507 5506 5505 5504 5503 5501 5499 5498 5495 5493 5491 5489 5488 5485 5483 5482 5481 5480 5479 5477 5475 5474 5472 5471 5470 5468 5465 5463 5461 5458 5454 5451 5449 5446 5444 5441
5503 5503 5503 5504 5504 5504 5505 5505 5505 5505 5505 5506 5506 5506 5507 5507 5508 5508 5508 5508 5508 5508 5509 5509 5509 5509 5508 5508 5508 5507 5507 5507 5507 5507 5507 5507 5507 5507 5507 5507 5506 5505 5505 5505 5505 5504 5504 5503 5503 5502 5501 5500 5499 5499 5497 5495 5494 5491 5489 5487 5485 5484 5481 5479 5476 5475 5474 5472 5471 5469 5468 5466 5464 5463 5462 5460 5457 5454 5452 5449 5446 5443 5439 5438 5435 5433
5498 5498 5499 5499 5500 5500 5500 5500 5500 5500 5501 5501 5502 5502 5502 5503 5503 5503 5503 5503 5504 5504 5504 5504 5504 5504 5503 5503 5502 5502 5502 5502 5502 5501 5501 5501 5501 5501 5501 5501 5501 5500 5499 5499 5499 5499 5498 5497 5496 5496 5495 5495 5494 5493 5491 5489 5487 5485 5483 5482 5480 5478 5475 5472 5470 5469 5467 5464 5463 5462 5460 5459 5457 5455 5454 5452 5449 5446 5443 5440 5437 5434 5431 5428 5426 5425
5494 5494 5494 5494 5495 5496 5496 5496 5496 5496 5497 5497 5497 5498 5498 5499 5499 5499 5499 5499 5499 5499 5499 5499 5500 5499 5499 5498 5497 5497 5497 5497 5497 5496 5496 5496 5496 5496 5496 5496 5495 5495 5494 5494 5494 5493 5492 5491 5490 5489 5489 5488 5488 5487 5485 5483 5480 5478 5477 5477 5475 5472 5469 5467 5465 5462 5459 5457 5455 5454 5452 5451 5450 5448 5445 5443 5440 5437 5434 5431 5429 5426 5423 5420 5417 5415
5489 5489 5489 5490 5490 5491 5491 5491 5492 5492 5493 5493 5493 5494 5494 5494 5494 5495 5495 5495 5495 5495 5495 5495 5495 5495 5494 5493 5492 5492 5492 5492 5492 5491 5491 5491 5491 5491 5491 5490 5490 5489 5489 5489 5488 5487 5486 5485 5485 5484 5482 5481 5481 5481 5480 5477 5474 5472 5471 5470 5468 5466 5464 5462 5458 5454 5452 5450 5448 5445 5444 5443 5442 5441 5438 5435 5432 5429 5426 5423 5421 5419 5416 5413 5410 5408
5484 5485 5485 5485 5486 5487 5487 5487 5488 5488 5488 5489 5489 5489 5489 5490 5490 5491 5491 5491 5491 5490 5491 5491 5491 5491 5490 5489 5488 5487 5487 5487 5487 5487 5486 5486 5486 5486 5485 5485 5484 5484 5484 5484 5483 5481 5479 5479 5479 5478 5477 5475 5475 5475 5474 5471 5468 5466 5464 5463 5461 5460 5459 5456 5451 5447 5445 5444 5441 5438 5436 5435 5434 5433 5431 5428 5425 5422 5419 5416 5414 5411 5409 5406 5404 5402
5480 5480 5481 5481 5482 5482 5482 5483 5483 5484 5484 5484 5484 5484 5485 5485 5486 5486 5486 5486 5486 5486 5486 5486 5487 5486 5486 5484 5483 5483 5482 5482 5482 5482 5482 5481 5481 5481 5480 5480 5479 5479 5478 5478 5478 5476 5474 5473 5473 5472 5471 5470 5470 5469 5467 5464 5462 5460 5458 5456 5454 5453 5452 5449 5445 5441 5439 5437 5434 5431 5429 5428 5427 5426 5424 5421 5419 5416 5413 5411 5408 5405 5403 5400 5398 5396
5476 5476 5477 5477 5477 5478 5478 5479 5479 5479 5479 5480 5480 5480 5480 5481 5481 5482 5482 5482 5482 5482 5482 5482 5482 5482 5481 5480 5479 5478 5478 5478 5477 5477 5477 5476 5476 5476 5475 5475 5474 5474 5473 5473 5472 5471 5470 5469 5467 5466 5464 5464 5464 5463 5460 5457 5455 5454 5452 5449 5447 5446 5444 5441 5438 5434 5433 5430 5428 5424 5422 5421 5420 5419 5418 5415 5412 5410 5408 5405 5403 5401 5398 5394 5392 5391
5472 5472 5473 5473 5473 5474 5474 5474 5474 5475 5475 5476 5476 5476 5476 5476 5477 5477 5478 5477 5477 5477 5477 5477 5478 5478 5477 5475 5474 5474 5474 5474 5472 5472 5471 5471 5471 5471 5470 5470 5469 5469 5468 5467 5466 5465 5464 5464 5463 5461 5459 5459 5458 5456 5454 5451 5449 5448 5446 5443 5441 5439 5437 5434 5430 5427 5424 5423 5422 5419 5416 5414 5413 5413 5412 5409 5407 5405 5403 5401 5399 5396 5394 5391 5388 5386
5468 5468 5469 5469 5469 5469 5470 5470 5470 5471 5471 5471 5471 5471 5472 5472 5473 5473 5473 5473 5473 5473 5473 5473 5474 5473 5473 5471 5470 5470 5470 5469 5468 5467 5467 5467 5467 5466 5465 5465 5464 5464 5463 5462 5461 5459 5459 5458 5457 5456 5455 5453 5451 5449 5446 5444 5443 5441 5439 5436 5434 5431 5430 5427 5423 5419 5417 5416 5415 5413 5410 5408 5407 5407 5405 5403 5402 5400 5399 5396 5394 5392 5389 5387 5385 5383
5464 5464 5465 5465 5465 5466 5466 5466 5466 5467 5467 5467 5467 5467 5468 5468 5469 5469 5469 5469 5469 5469 5469 5469 5469 5469 5468 5468 5467 5467 5467 5466 5464 5463 5463 5462 5462 5462 5461 5460 5459 5459 5458 5457 5456 5454 5453 5452 5451 5450 5449 5447 5445 5442 5439 5437 5436 5434 5433 5430 5427 5424 5422 5420 5417 5414 5412 5410 5409 5407 5404 5403 5402 5401 5399 5398 5397 5396 5394 5393 5391 5388 5385 5383 5381 5379
5461 5461 5461 5461 5462 5462 5462 5462 5463 5463 5463 5463 5464 5464 5464 5464 5465 5465 5465 5465 5465 5466 5466 5465 5465 5465 5464 5464 5463 5463 5463 5462 5461 5460 5459 5459 5458 5458 5457 5456 5455 5454 5453 5452 5450 5449 5448 5447 5446 5444 5442 5440 5438 5436 5433 5430 5428 5427 5425 5423 5420 5417 5415 5413 5411 5409 5406 5405 5404 5401 5399 5398 5397 5395 5394 5394 5393 5391 5390 5389 5387 5384 5382 5379 5377 5376
5457 5457 5458 5458 5458 5458 5458 5459 5459 5459 5459 5460 5460 5460 5460 5460 5461 5461 5461 5461 5462 5462 5462 5462 5461 5461 5461 5460 5459 5459 5459 5459 5458 5457 5455 5454 5454 5454 5453 5451 5450 5449 5448 5447 5445 5444 5444 5443 5441 5438 5435 5433 5431 5429 5426 5423 5421 5419 5419 5417 5414 5410 5408 5407 5406 5404 5402 5400 5399 5397 5395 5394 5392 5391 5390 5389 5388 5387 5386 5385 5384 5382 5379 5375 5374 5372
5454 5454 5454 5454 5455 5455 5455 5455 5456 5456 5456 5456 5457 5457 5457 5457 5457 5458 5458 5458 5458 5458 5458 5458 5458 5458 5457 5456 5456 5456 5456 5455 5454 5453 5452 5451 5450 5450 5449 5447 5445 5444 5444 5442 5441 5439 5439 5438 5437 5434 5430 5426 5424 5423 5421 5418 5415 5412 5411 5410 5408 5405 5404 5402 5401 5399 5397 5396 5395 5394 5392 5390 5389 5387 5386 5385 5384 5383 5382 5381 5380 5378 5375 5372 5370 5369